Вернуться в каталог

GLOBALSTAR M042

АктивенСвязьLEO
NORAD 25679·PAYLOAD·🇺🇸 United States

Запущен Apr 15, 1999 с Baikonur Cosmodrome

Loading…

Ближайшие Пролёты (ближайшие 24 часа)

TLE

СвежийSource: Space-Track

Эпоха: Sep 14, 2026, 06:07 UTC

1 25679U 99019D   26257.25508977 -.00000083  00000-0  81861-4 0  9992
2 25679  51.9999 209.0809 0002772 154.8851 352.2712 12.22101841240775

Отслеживайте GLOBALSTAR M042 в реальном времени с AllMySat

Download on the App Store